Simultaneous Nadir Overpasses (SNOs) Predictions

Prediction of SNOs between GOES-17 and METOP-C Satellite Orbit:

Table of predicted SNOs for the next 14.0 days since TLE Epoch: 11/4/2023
Index Date Time (GOES-17) GOES-17 Lat,Lon METOP-C Lat,Lon Distance(km) Time Diff (sec)
1 11/04/2023 04:40:56 -0.01,-104.65 0.00,-107.56 323.31 80
2 11/05/2023 04:17:28 -0.01,-104.65 0.51,-102.43 252.97 80
3 11/06/2023 16:36:21 0.00,-104.67 0.52,-107.00 264.85 80
4 11/07/2023 16:18:22 0.00,-104.67 -0.58,-102.00 303.97 80
5 11/09/2023 04:37:25 -0.00,-104.65 -0.43,-106.61 222.71 80
6 11/10/2023 04:14:06 -0.00,-104.65 0.68,-101.61 345.92 80
7 11/11/2023 16:33:00 -0.00,-104.67 0.35,-106.18 172.01 80
8 11/12/2023 16:15:01 -0.00,-104.67 -0.76,-101.19 396.78 80
9 11/14/2023 04:34:02 0.01,-104.65 -0.27,-105.78 129.91 80
10 11/15/2023 04:10:44 0.01,-104.64 0.84,-100.79 438.34 80
11 11/16/2023 16:29:38 -0.01,-104.65 0.12,-105.37 80.73 80
12 11/17/2023 16:11:39 -0.00,-104.65 -0.94,-100.36 487.87 80
